Simultaneous Nadir Overpasses (SNOs) Predictions

Prediction of SNOs between GOES-16 and AQUA Satellite Orbit:

Table of predicted SNOs for the next 14.0 days since TLE Epoch: 5/29/2020
Index Date Time (GOES-16) GOES-16 Lat,Lon AQUA Lat,Lon Distance(km) Time Diff (sec)
1 05/31/2020 06:17:28 0.00, -75.19 -0.92, -70.91 487.57 80
2 05/31/2020 18:38:52 -0.00, -75.20 -0.22, -76.09 102.69 80
3 06/02/2020 18:29:21 -0.00, -75.20 0.42, -73.14 234.01 80
4 06/03/2020 06:50:37 0.00, -75.20 0.64, -78.30 351.98 80
5 06/05/2020 06:38:26 -0.00, -75.21 -0.00, -75.35 15.20 80
6 06/07/2020 06:23:34 -0.00, -75.23 -0.58, -72.38 322.62 80
7 06/07/2020 18:44:59 0.00, -75.23 -0.49, -77.59 267.45 80
8 06/09/2020 18:35:27 -0.00, -75.25 0.10, -74.62 71.21 80
9 06/11/2020 18:23:16 -0.00, -75.28 0.76, -71.67 410.55 80
10 06/12/2020 06:44:32 0.00, -75.29 0.32, -76.83 174.58 80




NCC Satellite Simultaneous Nadir Overpasses (SNOs) Prediction Service
